Year,Month,Day,Hour,Minute,Value (Times are PST for temperature in C)
2012,05,26,00,00,14.80
2012,05,26,00,01,14.80
2012,05,26,00,02,14.70
2012,05,26,00,03,14.70
2012,05,26,00,04,14.60
2012,05,26,00,05,14.60
2012,05,26,00,06,14.50
2012,05,26,00,07,14.40
2012,05,26,00,08,14.30
2012,05,26,00,09,14.30
2012,05,26,00,10,14.30
2012,05,26,00,11,14.30
2012,05,26,00,12,14.30
2012,05,26,00,13,14.30
2012,05,26,00,14,14.30
2012,05,26,00,15,14.30
2012,05,26,00,16,14.20
2012,05,26,00,17,14.20
2012,05,26,00,18,14.20
2012,05,26,00,19,14.20
2012,05,26,00,20,14.20
2012,05,26,00,21,14.10
2012,05,26,00,22,14.10
2012,05,26,00,23,14.00
2012,05,26,00,24,14.00
2012,05,26,00,25,13.90
2012,05,26,00,26,13.90
2012,05,26,00,27,13.90
2012,05,26,00,28,13.80
2012,05,26,00,29,13.80
2012,05,26,00,30,13.80
2012,05,26,00,31,13.80
2012,05,26,00,32,13.80
2012,05,26,00,33,13.80
2012,05,26,00,34,13.80
2012,05,26,00,35,13.70
2012,05,26,00,36,13.70
2012,05,26,00,37,13.60
2012,05,26,00,38,13.60
2012,05,26,00,39,13.60
2012,05,26,00,40,13.60
2012,05,26,00,41,13.60
2012,05,26,00,42,13.50
2012,05,26,00,43,13.50
2012,05,26,00,44,13.50
2012,05,26,00,45,13.50
2012,05,26,00,46,13.50
2012,05,26,00,47,13.40
2012,05,26,00,48,13.40
2012,05,26,00,49,13.50
2012,05,26,00,50,13.50
2012,05,26,00,51,13.60
2012,05,26,00,52,13.60
2012,05,26,00,53,13.60
2012,05,26,00,54,13.60
2012,05,26,00,55,13.70
2012,05,26,00,56,13.70
2012,05,26,00,57,13.70
2012,05,26,00,58,13.70
2012,05,26,00,59,13.70
2012,05,26,01,00,13.70
2012,05,26,01,01,13.70
2012,05,26,01,02,13.70
2012,05,26,01,03,13.70
2012,05,26,01,04,13.70
2012,05,26,01,05,13.70
2012,05,26,01,06,13.70
2012,05,26,01,07,13.70
2012,05,26,01,08,13.70
2012,05,26,01,09,13.60
2012,05,26,01,10,13.60
2012,05,26,01,11,13.50
2012,05,26,01,12,13.50
2012,05,26,01,13,13.50
2012,05,26,01,14,13.40
2012,05,26,01,15,13.40
2012,05,26,01,16,13.40
2012,05,26,01,17,13.30
2012,05,26,01,18,13.30
2012,05,26,01,19,13.20
2012,05,26,01,20,13.20
2012,05,26,01,21,13.20
2012,05,26,01,22,13.10
2012,05,26,01,23,13.10
2012,05,26,01,24,13.10
2012,05,26,01,25,13.10
2012,05,26,01,26,13.20
2012,05,26,01,27,13.20
2012,05,26,01,28,13.20
2012,05,26,01,29,13.30
2012,05,26,01,30,13.30
2012,05,26,01,31,13.30
2012,05,26,01,32,13.30
2012,05,26,01,33,13.30
2012,05,26,01,34,13.30
2012,05,26,01,35,13.30
2012,05,26,01,36,13.40
2012,05,26,01,37,13.40
2012,05,26,01,38,13.40
2012,05,26,01,39,13.30
2012,05,26,01,40,13.30
2012,05,26,01,41,13.30
2012,05,26,01,42,13.30
2012,05,26,01,43,13.30
2012,05,26,01,44,13.30
2012,05,26,01,45,13.20
2012,05,26,01,46,13.20
2012,05,26,01,47,13.20
2012,05,26,01,48,13.20
2012,05,26,01,49,13.20
2012,05,26,01,50,13.20
2012,05,26,01,51,13.20
2012,05,26,01,52,13.10
2012,05,26,01,53,13.10
2012,05,26,01,54,13.10
2012,05,26,01,55,13.10
2012,05,26,01,56,13.10
2012,05,26,01,57,13.10
2012,05,26,01,58,13.10
2012,05,26,01,59,13.00
2012,05,26,02,00,13.00
2012,05,26,02,01,13.00
2012,05,26,02,02,13.00
2012,05,26,02,03,12.90
2012,05,26,02,04,12.90
2012,05,26,02,05,12.90
2012,05,26,02,06,12.90
2012,05,26,02,07,12.80
2012,05,26,02,08,12.80
2012,05,26,02,09,12.80
2012,05,26,02,10,12.80
2012,05,26,02,11,12.80
2012,05,26,02,12,12.80
2012,05,26,02,13,12.80
2012,05,26,02,14,12.80
2012,05,26,02,15,12.80
2012,05,26,02,16,12.80
2012,05,26,02,17,12.70
2012,05,26,02,18,12.70
2012,05,26,02,19,12.70
2012,05,26,02,20,12.70
2012,05,26,02,21,12.70
2012,05,26,02,22,12.70
2012,05,26,02,23,12.70
2012,05,26,02,24,12.60
2012,05,26,02,25,12.60
2012,05,26,02,26,12.60
2012,05,26,02,27,12.60
2012,05,26,02,28,12.50
2012,05,26,02,29,12.50
2012,05,26,02,30,12.50
2012,05,26,02,31,12.40
2012,05,26,02,32,12.40
2012,05,26,02,33,12.40
2012,05,26,02,34,12.40
2012,05,26,02,35,12.40
2012,05,26,02,36,12.30
2012,05,26,02,37,12.30
2012,05,26,02,38,12.30
2012,05,26,02,39,12.30
2012,05,26,02,40,12.20
2012,05,26,02,41,12.20
2012,05,26,02,42,12.20
2012,05,26,02,43,12.20
2012,05,26,02,44,12.10
2012,05,26,02,45,12.10
2012,05,26,02,46,12.10
2012,05,26,02,47,12.10
2012,05,26,02,48,12.10
2012,05,26,02,49,12.10
2012,05,26,02,50,12.10
2012,05,26,02,51,12.10
2012,05,26,02,52,12.10
2012,05,26,02,53,12.10
2012,05,26,02,54,12.10
2012,05,26,02,55,12.10
2012,05,26,02,56,12.10
2012,05,26,02,57,12.10
2012,05,26,02,58,12.10
2012,05,26,02,59,12.10
2012,05,26,03,00,12.00
2012,05,26,03,01,12.00
2012,05,26,03,02,12.00
2012,05,26,03,03,12.00
2012,05,26,03,04,12.00
2012,05,26,03,05,11.90
2012,05,26,03,06,11.90
2012,05,26,03,07,11.90
2012,05,26,03,08,11.90
2012,05,26,03,09,11.90
2012,05,26,03,10,11.90
2012,05,26,03,11,11.90
2012,05,26,03,12,11.90
2012,05,26,03,13,11.90
2012,05,26,03,14,11.90
2012,05,26,03,15,11.80
2012,05,26,03,16,11.80
2012,05,26,03,17,11.80
2012,05,26,03,18,11.80
2012,05,26,03,19,11.80
2012,05,26,03,20,11.70
2012,05,26,03,21,11.70
2012,05,26,03,22,11.70
2012,05,26,03,23,11.70
2012,05,26,03,24,11.60
2012,05,26,03,25,11.60
2012,05,26,03,26,11.60
2012,05,26,03,27,11.60
2012,05,26,03,28,11.50
2012,05,26,03,29,11.50
2012,05,26,03,30,11.50
2012,05,26,03,31,11.40
2012,05,26,03,32,11.40
2012,05,26,03,33,11.40
2012,05,26,03,34,11.40
2012,05,26,03,35,11.40
2012,05,26,03,36,11.40
2012,05,26,03,37,11.30
2012,05,26,03,38,11.30
2012,05,26,03,39,11.30
2012,05,26,03,40,11.30
2012,05,26,03,41,11.30
2012,05,26,03,42,11.30
2012,05,26,03,43,11.30
2012,05,26,03,44,11.30
2012,05,26,03,45,11.30
2012,05,26,03,46,11.30
2012,05,26,03,47,11.30
2012,05,26,03,48,11.20
2012,05,26,03,49,11.20
2012,05,26,03,50,11.20
2012,05,26,03,51,11.10
2012,05,26,03,52,11.10
2012,05,26,03,53,11.10
2012,05,26,03,54,11.00
2012,05,26,03,55,11.00
2012,05,26,03,56,11.00
2012,05,26,03,57,10.90
2012,05,26,03,58,10.90
2012,05,26,03,59,10.90
2012,05,26,04,00,10.90
2012,05,26,04,01,10.90
2012,05,26,04,02,10.90
2012,05,26,04,03,10.90
2012,05,26,04,04,10.80
2012,05,26,04,05,10.80
2012,05,26,04,06,10.80
2012,05,26,04,07,10.80
2012,05,26,04,08,10.80
2012,05,26,04,09,10.80
2012,05,26,04,10,10.80
2012,05,26,04,11,10.70
2012,05,26,04,12,10.70
2012,05,26,04,13,10.70
2012,05,26,04,14,10.70
2012,05,26,04,15,10.60
2012,05,26,04,16,10.50
2012,05,26,04,17,10.50
2012,05,26,04,18,10.40
2012,05,26,04,19,10.40
2012,05,26,04,20,10.40
2012,05,26,04,21,10.40
2012,05,26,04,22,10.30
2012,05,26,04,23,10.30
2012,05,26,04,24,10.30
2012,05,26,04,25,10.30
2012,05,26,04,26,10.30
2012,05,26,04,27,10.30
2012,05,26,04,28,10.30
2012,05,26,04,29,10.20
2012,05,26,04,30,10.20
2012,05,26,04,31,10.20
2012,05,26,04,32,10.20
2012,05,26,04,33,10.20
2012,05,26,04,34,10.20
2012,05,26,04,35,10.30
2012,05,26,04,36,10.30
2012,05,26,04,37,10.30
2012,05,26,04,38,10.30
2012,05,26,04,39,10.30
2012,05,26,04,40,10.30
2012,05,26,04,41,10.30
2012,05,26,04,42,10.30
2012,05,26,04,43,10.30
2012,05,26,04,44,10.30
2012,05,26,04,45,10.30
2012,05,26,04,46,10.30
2012,05,26,04,47,10.30
2012,05,26,04,48,10.30
2012,05,26,04,49,10.30
2012,05,26,04,50,10.30
2012,05,26,04,51,10.30
2012,05,26,04,52,10.20
2012,05,26,04,53,10.20
2012,05,26,04,54,10.20
2012,05,26,04,55,10.20
2012,05,26,04,56,10.20
2012,05,26,04,57,10.20
2012,05,26,04,58,10.20
2012,05,26,04,59,10.20
2012,05,26,05,00,10.20
2012,05,26,05,01,10.10
2012,05,26,05,02,10.10
2012,05,26,05,03,10.10
2012,05,26,05,04,10.10
2012,05,26,05,05,10.20
2012,05,26,05,06,10.20
2012,05,26,05,07,10.10
2012,05,26,05,08,10.10
2012,05,26,05,09,10.10
2012,05,26,05,10,10.00
2012,05,26,05,11,10.00
2012,05,26,05,12,9.90
2012,05,26,05,13,9.90
2012,05,26,05,14,9.90
2012,05,26,05,15,9.80
2012,05,26,05,16,9.80
2012,05,26,05,17,9.80
2012,05,26,05,18,9.80
2012,05,26,05,19,9.80
2012,05,26,05,20,9.80
2012,05,26,05,21,9.80
2012,05,26,05,22,9.80
2012,05,26,05,23,9.80
2012,05,26,05,24,9.80
2012,05,26,05,25,9.80
2012,05,26,05,26,9.80
2012,05,26,05,27,9.80
2012,05,26,05,28,9.80
2012,05,26,05,29,9.80
2012,05,26,05,30,9.80
2012,05,26,05,31,9.80
2012,05,26,05,32,9.80
2012,05,26,05,33,9.90
2012,05,26,05,34,9.90
2012,05,26,05,35,9.90
2012,05,26,05,36,9.90
2012,05,26,05,37,10.00
2012,05,26,05,38,10.00
2012,05,26,05,39,10.00
2012,05,26,05,40,10.00
2012,05,26,05,41,10.00
2012,05,26,05,42,10.00
2012,05,26,05,43,10.00
2012,05,26,05,44,10.00
2012,05,26,05,45,10.00
2012,05,26,05,46,10.00
2012,05,26,05,47,9.90
2012,05,26,05,48,9.90
2012,05,26,05,49,9.90
2012,05,26,05,50,9.90
2012,05,26,05,51,9.80
2012,05,26,05,52,9.80
2012,05,26,05,53,9.80
2012,05,26,05,54,9.80
2012,05,26,05,55,9.80
2012,05,26,05,56,9.80
2012,05,26,05,57,9.80
2012,05,26,05,58,9.80
2012,05,26,05,59,9.80
2012,05,26,06,00,9.80
2012,05,26,06,01,9.80
2012,05,26,06,02,9.80
2012,05,26,06,03,9.80
2012,05,26,06,04,9.80
2012,05,26,06,05,9.90
2012,05,26,06,06,10.00
2012,05,26,06,07,10.00
2012,05,26,06,08,10.10
2012,05,26,06,09,10.20
2012,05,26,06,10,10.30
2012,05,26,06,11,10.30
2012,05,26,06,12,10.30
2012,05,26,06,13,10.40
2012,05,26,06,14,10.50
2012,05,26,06,15,10.60
2012,05,26,06,16,10.60
2012,05,26,06,17,10.70
2012,05,26,06,18,10.70
2012,05,26,06,19,10.70
2012,05,26,06,20,10.80
2012,05,26,06,21,10.80
2012,05,26,06,22,10.80
2012,05,26,06,23,10.80
2012,05,26,06,24,10.80
2012,05,26,06,25,10.80
2012,05,26,06,26,10.80
2012,05,26,06,27,10.90
2012,05,26,06,28,10.90
2012,05,26,06,29,10.90
2012,05,26,06,30,10.90
2012,05,26,06,31,11.00
2012,05,26,06,32,11.00
2012,05,26,06,33,11.10
2012,05,26,06,34,11.10
2012,05,26,06,35,11.20
2012,05,26,06,36,11.30
2012,05,26,06,37,11.30
2012,05,26,06,38,11.40
2012,05,26,06,39,11.40
2012,05,26,06,40,11.50
2012,05,26,06,41,11.60
2012,05,26,06,42,11.70
2012,05,26,06,43,11.80
2012,05,26,06,44,11.80
2012,05,26,06,45,11.90
2012,05,26,06,46,12.00
2012,05,26,06,47,12.10
2012,05,26,06,48,12.10
2012,05,26,06,49,12.20
2012,05,26,06,50,12.20
2012,05,26,06,51,12.30
2012,05,26,06,52,12.30
2012,05,26,06,53,12.40
2012,05,26,06,54,12.40
2012,05,26,06,55,12.50
2012,05,26,06,56,12.50
2012,05,26,06,57,12.60
2012,05,26,06,58,12.70
2012,05,26,06,59,12.70
2012,05,26,07,00,12.70
2012,05,26,07,01,12.80
2012,05,26,07,02,12.80
2012,05,26,07,03,12.90
2012,05,26,07,04,13.00
2012,05,26,07,05,13.00
2012,05,26,07,06,13.10
2012,05,26,07,07,13.10
2012,05,26,07,08,13.20
2012,05,26,07,09,13.20
2012,05,26,07,10,13.30
2012,05,26,07,11,13.30
2012,05,26,07,12,13.40
2012,05,26,07,13,13.50
2012,05,26,07,14,13.50
2012,05,26,07,15,13.60
2012,05,26,07,16,13.70
2012,05,26,07,17,13.70
2012,05,26,07,18,13.80
2012,05,26,07,19,13.80
2012,05,26,07,20,13.90
2012,05,26,07,21,13.90
2012,05,26,07,22,14.00
2012,05,26,07,23,14.00
2012,05,26,07,24,14.10
2012,05,26,07,25,14.10
2012,05,26,07,26,14.20
2012,05,26,07,27,14.30
2012,05,26,07,28,14.30
2012,05,26,07,29,14.40
2012,05,26,07,30,14.40
2012,05,26,07,31,14.50
2012,05,26,07,32,14.50
2012,05,26,07,33,14.60
2012,05,26,07,34,14.60
2012,05,26,07,35,14.60
2012,05,26,07,36,14.70
2012,05,26,07,37,14.70
2012,05,26,07,38,14.70
2012,05,26,07,39,14.80
2012,05,26,07,40,14.80
2012,05,26,07,41,14.90
2012,05,26,07,42,14.90
2012,05,26,07,43,15.00
2012,05,26,07,44,15.00
2012,05,26,07,45,15.00
2012,05,26,07,46,15.00
2012,05,26,07,47,15.00
2012,05,26,07,48,15.00
2012,05,26,07,49,15.10
2012,05,26,07,50,15.20
2012,05,26,07,51,15.30
2012,05,26,07,52,15.50
2012,05,26,07,53,15.60
2012,05,26,07,54,15.70
2012,05,26,07,55,15.80
2012,05,26,07,56,15.90
2012,05,26,07,57,16.00
2012,05,26,07,58,16.10
2012,05,26,07,59,16.20
2012,05,26,08,00,16.20
2012,05,26,08,01,16.30
2012,05,26,08,02,16.30
2012,05,26,08,03,16.20
2012,05,26,08,04,16.10
2012,05,26,08,05,16.10
2012,05,26,08,06,16.00
2012,05,26,08,07,15.90
2012,05,26,08,08,15.90
2012,05,26,08,09,15.90
2012,05,26,08,10,15.80
2012,05,26,08,11,15.80
2012,05,26,08,12,15.80
2012,05,26,08,13,15.80
2012,05,26,08,14,15.80
2012,05,26,08,15,15.80
2012,05,26,08,16,15.70
2012,05,26,08,17,15.70
2012,05,26,08,18,15.70
2012,05,26,08,19,15.70
2012,05,26,08,20,15.70
2012,05,26,08,21,15.70
2012,05,26,08,22,15.70
2012,05,26,08,23,15.70
2012,05,26,08,24,15.70
2012,05,26,08,25,15.80
2012,05,26,08,26,15.90
2012,05,26,08,27,16.00
2012,05,26,08,28,16.10
2012,05,26,08,29,16.10
2012,05,26,08,30,16.10
2012,05,26,08,31,16.10
2012,05,26,08,32,16.10
2012,05,26,08,33,16.20
2012,05,26,08,34,16.30
2012,05,26,08,35,16.30
2012,05,26,08,36,16.40
2012,05,26,08,37,16.40
2012,05,26,08,38,16.50
2012,05,26,08,39,16.50
2012,05,26,08,40,16.60
2012,05,26,08,41,16.60
2012,05,26,08,42,16.60
2012,05,26,08,43,16.50
2012,05,26,08,44,16.50
2012,05,26,08,45,16.50
2012,05,26,08,46,16.50
2012,05,26,08,47,16.40
2012,05,26,08,48,16.40
2012,05,26,08,49,16.30
2012,05,26,08,50,16.30
2012,05,26,08,51,16.20
2012,05,26,08,52,16.10
2012,05,26,08,53,16.10
2012,05,26,08,54,16.00
2012,05,26,08,55,15.90
2012,05,26,08,56,15.90
2012,05,26,08,57,15.90
2012,05,26,08,58,15.90
2012,05,26,08,59,15.80
2012,05,26,09,00,15.80
2012,05,26,09,01,15.70
2012,05,26,09,02,15.70
2012,05,26,09,03,15.60
2012,05,26,09,04,15.60
2012,05,26,09,05,15.60
2012,05,26,09,06,15.60
2012,05,26,09,07,15.60
2012,05,26,09,08,15.60
2012,05,26,09,09,15.60
2012,05,26,09,10,15.60
2012,05,26,09,11,15.70
2012,05,26,09,12,15.60
2012,05,26,09,13,15.60
2012,05,26,09,14,15.70
2012,05,26,09,15,15.70
2012,05,26,09,16,15.70
2012,05,26,09,17,15.80
2012,05,26,09,18,15.80
2012,05,26,09,19,15.90
2012,05,26,09,20,15.90
2012,05,26,09,21,16.00
2012,05,26,09,22,16.00
2012,05,26,09,23,16.10
2012,05,26,09,24,16.10
2012,05,26,09,25,16.10
2012,05,26,09,26,16.10
2012,05,26,09,27,16.00
2012,05,26,09,28,15.90
2012,05,26,09,29,15.70
2012,05,26,09,30,15.60
2012,05,26,09,31,15.50
2012,05,26,09,32,15.40
2012,05,26,09,33,15.50
2012,05,26,09,34,15.60
2012,05,26,09,35,15.70
2012,05,26,09,36,15.70
2012,05,26,09,37,15.80
2012,05,26,09,38,15.90
2012,05,26,09,39,15.90
2012,05,26,09,40,15.90
2012,05,26,09,41,15.80
2012,05,26,09,42,15.80
2012,05,26,09,43,15.80
2012,05,26,09,44,15.80
2012,05,26,09,45,15.80
2012,05,26,09,46,15.90
2012,05,26,09,47,16.00
2012,05,26,09,48,16.00
2012,05,26,09,49,16.10
2012,05,26,09,50,16.10
2012,05,26,09,51,16.10
2012,05,26,09,52,16.20
2012,05,26,09,53,16.20
2012,05,26,09,54,16.30
2012,05,26,09,55,16.50
2012,05,26,09,56,16.60
2012,05,26,09,57,16.70
2012,05,26,09,58,16.70
2012,05,26,09,59,16.60
2012,05,26,10,00,16.50
2012,05,26,10,01,16.40
2012,05,26,10,02,16.40
2012,05,26,10,03,16.30
2012,05,26,10,04,16.30
2012,05,26,10,05,16.30
2012,05,26,10,06,16.30
2012,05,26,10,07,16.20
2012,05,26,10,08,16.20
2012,05,26,10,09,16.20
2012,05,26,10,10,16.10
2012,05,26,10,11,16.10
2012,05,26,10,12,16.00
2012,05,26,10,13,16.00
2012,05,26,10,14,16.00
2012,05,26,10,15,16.10
2012,05,26,10,16,16.10
2012,05,26,10,17,16.20
2012,05,26,10,18,16.20
2012,05,26,10,19,16.20
2012,05,26,10,20,16.20
2012,05,26,10,21,16.20
2012,05,26,10,22,16.20
2012,05,26,10,23,16.20
2012,05,26,10,24,16.30
2012,05,26,10,25,16.30
2012,05,26,10,26,16.40
2012,05,26,10,27,16.60
2012,05,26,10,28,16.70
2012,05,26,10,29,16.70
2012,05,26,10,30,16.60
2012,05,26,10,31,16.50
2012,05,26,10,32,16.50
2012,05,26,10,33,16.60
2012,05,26,10,34,16.50
2012,05,26,10,35,16.40
2012,05,26,10,36,16.40
2012,05,26,10,37,16.30
2012,05,26,10,38,16.40
2012,05,26,10,39,16.40
2012,05,26,10,40,16.40
2012,05,26,10,41,16.40
2012,05,26,10,42,16.40
2012,05,26,10,43,16.50
2012,05,26,10,44,16.50
2012,05,26,10,45,16.70
2012,05,26,10,46,16.70
2012,05,26,10,47,16.70
2012,05,26,10,48,16.70
2012,05,26,10,49,16.60
2012,05,26,10,50,16.60
2012,05,26,10,51,16.50
2012,05,26,10,52,16.50
2012,05,26,10,53,16.50
2012,05,26,10,54,16.50
2012,05,26,10,55,16.50
2012,05,26,10,56,16.50
2012,05,26,10,57,16.60
2012,05,26,10,58,16.70
2012,05,26,10,59,16.80
2012,05,26,11,00,16.80
2012,05,26,11,01,16.90
2012,05,26,11,02,17.00
2012,05,26,11,03,17.00
2012,05,26,11,04,17.00
2012,05,26,11,05,17.00
2012,05,26,11,06,16.90
2012,05,26,11,07,16.90
2012,05,26,11,08,16.90
2012,05,26,11,09,16.80
2012,05,26,11,10,16.80
2012,05,26,11,11,16.80
2012,05,26,11,12,16.70
2012,05,26,11,13,16.70
2012,05,26,11,14,16.70
2012,05,26,11,15,16.60
2012,05,26,11,16,16.70
2012,05,26,11,17,16.80
2012,05,26,11,18,16.90
2012,05,26,11,19,17.10
2012,05,26,11,20,17.20
2012,05,26,11,21,17.20
2012,05,26,11,22,17.20
2012,05,26,11,23,17.20
2012,05,26,11,24,17.20
2012,05,26,11,25,17.20
2012,05,26,11,26,17.20
2012,05,26,11,27,17.30
2012,05,26,11,28,17.40
2012,05,26,11,29,17.50
2012,05,26,11,30,17.60
2012,05,26,11,31,17.70
2012,05,26,11,32,17.60
2012,05,26,11,33,17.50
2012,05,26,11,34,17.40
2012,05,26,11,35,17.40
2012,05,26,11,36,17.30
2012,05,26,11,37,17.20
2012,05,26,11,38,17.20
2012,05,26,11,39,17.30
2012,05,26,11,40,17.30
2012,05,26,11,41,17.50
2012,05,26,11,42,17.60
2012,05,26,11,43,17.60
2012,05,26,11,44,17.60
2012,05,26,11,45,17.60
2012,05,26,11,46,17.50
2012,05,26,11,47,17.40
2012,05,26,11,48,17.40
2012,05,26,11,49,17.50
2012,05,26,11,50,17.60
2012,05,26,11,51,17.70
2012,05,26,11,52,17.60
2012,05,26,11,53,17.60
2012,05,26,11,54,17.60
2012,05,26,11,55,17.50
2012,05,26,11,56,17.50
2012,05,26,11,57,17.50
2012,05,26,11,58,17.70
2012,05,26,11,59,17.70
2012,05,26,12,00,17.60
2012,05,26,12,01,17.70
2012,05,26,12,02,17.80
2012,05,26,12,03,17.90
2012,05,26,12,04,17.90
2012,05,26,12,05,18.00
2012,05,26,12,06,18.10
2012,05,26,12,07,18.10
2012,05,26,12,08,18.00
2012,05,26,12,09,18.00
2012,05,26,12,10,18.10
2012,05,26,12,11,18.00
2012,05,26,12,12,17.90
2012,05,26,12,13,17.90
2012,05,26,12,14,17.90
2012,05,26,12,15,18.00
2012,05,26,12,16,18.00
2012,05,26,12,17,18.10
2012,05,26,12,18,18.10
2012,05,26,12,19,18.10
2012,05,26,12,20,18.10
2012,05,26,12,21,18.10
2012,05,26,12,22,18.20
2012,05,26,12,23,18.20
2012,05,26,12,24,18.20
2012,05,26,12,25,18.30
2012,05,26,12,26,18.30
2012,05,26,12,27,18.30
2012,05,26,12,28,18.40
2012,05,26,12,29,18.30
2012,05,26,12,30,18.30
2012,05,26,12,31,18.20
2012,05,26,12,32,18.20
2012,05,26,12,33,18.20
2012,05,26,12,34,18.10
2012,05,26,12,35,18.00
2012,05,26,12,36,18.00
2012,05,26,12,37,18.00
2012,05,26,12,38,18.00
2012,05,26,12,39,18.10
2012,05,26,12,40,18.10
2012,05,26,12,41,18.20
2012,05,26,12,42,18.20
2012,05,26,12,43,18.20
2012,05,26,12,44,18.30
2012,05,26,12,45,18.30
2012,05,26,12,46,18.40
2012,05,26,12,47,18.50
2012,05,26,12,48,18.60
2012,05,26,12,49,18.60
2012,05,26,12,50,18.50
2012,05,26,12,51,18.40
2012,05,26,12,52,18.30
2012,05,26,12,53,18.20
2012,05,26,12,54,18.30
2012,05,26,12,55,18.30
2012,05,26,12,56,18.30
2012,05,26,12,57,18.20
2012,05,26,12,58,18.10
2012,05,26,12,59,18.10
2012,05,26,13,00,18.10
2012,05,26,13,01,18.10
2012,05,26,13,02,18.00
2012,05,26,13,03,18.00
2012,05,26,13,04,18.10
2012,05,26,13,05,18.20
2012,05,26,13,06,18.30
2012,05,26,13,07,18.40
2012,05,26,13,08,18.60
2012,05,26,13,09,18.70
2012,05,26,13,10,18.80
2012,05,26,13,11,18.90
2012,05,26,13,12,19.00
2012,05,26,13,13,19.10
2012,05,26,13,14,19.20
2012,05,26,13,15,19.30
2012,05,26,13,16,19.30
2012,05,26,13,17,19.50
2012,05,26,13,18,19.60
2012,05,26,13,19,19.60
2012,05,26,13,20,19.70
2012,05,26,13,21,19.70
2012,05,26,13,22,19.70
2012,05,26,13,23,19.80
2012,05,26,13,24,19.80
2012,05,26,13,25,19.80
2012,05,26,13,26,19.70
2012,05,26,13,27,19.50
2012,05,26,13,28,19.30
2012,05,26,13,29,19.20
2012,05,26,13,30,19.20
2012,05,26,13,31,19.20
2012,05,26,13,32,19.20
2012,05,26,13,33,19.20
2012,05,26,13,34,19.20
2012,05,26,13,35,19.20
2012,05,26,13,36,19.10
2012,05,26,13,37,19.00
2012,05,26,13,38,19.00
2012,05,26,13,39,19.10
2012,05,26,13,40,19.20
2012,05,26,13,41,19.20
2012,05,26,13,42,19.20
2012,05,26,13,43,19.20
2012,05,26,13,44,19.20
2012,05,26,13,45,19.30
2012,05,26,13,46,19.40
2012,05,26,13,47,19.50
2012,05,26,13,48,19.60
2012,05,26,13,49,19.60
2012,05,26,13,50,19.60
2012,05,26,13,51,19.60
2012,05,26,13,52,19.50
2012,05,26,13,53,19.40
2012,05,26,13,54,19.40
2012,05,26,13,55,19.50
2012,05,26,13,56,19.60
2012,05,26,13,57,19.80
2012,05,26,13,58,19.90
2012,05,26,13,59,20.00
2012,05,26,14,00,20.20
2012,05,26,14,01,20.30
2012,05,26,14,02,20.30
2012,05,26,14,03,20.40
2012,05,26,14,04,20.60
2012,05,26,14,05,20.60
2012,05,26,14,06,20.50
2012,05,26,14,07,20.30
2012,05,26,14,08,20.20
2012,05,26,14,09,20.00
2012,05,26,14,10,19.90
2012,05,26,14,11,19.80
2012,05,26,14,12,19.90
2012,05,26,14,13,20.00
2012,05,26,14,14,20.00
2012,05,26,14,15,19.80
2012,05,26,14,16,19.60
2012,05,26,14,17,19.60
2012,05,26,14,18,19.60
2012,05,26,14,19,19.60
2012,05,26,14,20,19.60
2012,05,26,14,21,19.70
2012,05,26,14,22,19.80
2012,05,26,14,23,19.90
2012,05,26,14,24,20.00
2012,05,26,14,25,20.10
2012,05,26,14,26,20.20
2012,05,26,14,27,20.20
2012,05,26,14,28,20.30
2012,05,26,14,29,20.30
2012,05,26,14,30,20.30
2012,05,26,14,31,20.30
2012,05,26,14,32,20.30
2012,05,26,14,33,20.40
2012,05,26,14,34,20.50
2012,05,26,14,35,20.60
2012,05,26,14,36,20.60
2012,05,26,14,37,20.50
2012,05,26,14,38,20.40
2012,05,26,14,39,20.40
2012,05,26,14,40,20.40
2012,05,26,14,41,20.30
2012,05,26,14,42,20.20
2012,05,26,14,43,20.20
2012,05,26,14,44,20.10
2012,05,26,14,45,20.10
2012,05,26,14,46,20.10
2012,05,26,14,47,20.10
2012,05,26,14,48,20.10
2012,05,26,14,49,20.00
2012,05,26,14,50,20.00
2012,05,26,14,51,20.00
2012,05,26,14,52,20.10
2012,05,26,14,53,20.20
2012,05,26,14,54,20.20
2012,05,26,14,55,20.10
2012,05,26,14,56,20.10
2012,05,26,14,57,20.10
2012,05,26,14,58,20.10
2012,05,26,14,59,20.20
2012,05,26,15,00,20.20
2012,05,26,15,01,20.10
2012,05,26,15,02,20.10
2012,05,26,15,03,20.00
2012,05,26,15,04,19.90
2012,05,26,15,05,19.90
2012,05,26,15,06,20.00
2012,05,26,15,07,20.10
2012,05,26,15,08,20.20
2012,05,26,15,09,20.30
2012,05,26,15,10,20.30
2012,05,26,15,11,20.40
2012,05,26,15,12,20.50
2012,05,26,15,13,20.60
2012,05,26,15,14,20.70
2012,05,26,15,15,20.80
2012,05,26,15,16,20.80
2012,05,26,15,17,20.60
2012,05,26,15,18,20.50
2012,05,26,15,19,20.20
2012,05,26,15,20,20.00
2012,05,26,15,21,19.90
2012,05,26,15,22,20.00
2012,05,26,15,23,20.00
2012,05,26,15,24,19.90
2012,05,26,15,25,19.80
2012,05,26,15,26,19.80
2012,05,26,15,27,19.70
2012,05,26,15,28,19.70
2012,05,26,15,29,19.50
2012,05,26,15,30,19.40
2012,05,26,15,31,19.30
2012,05,26,15,32,19.30
2012,05,26,15,33,19.30
2012,05,26,15,34,19.30
2012,05,26,15,35,19.30
2012,05,26,15,36,19.30
2012,05,26,15,37,19.30
2012,05,26,15,38,19.20
2012,05,26,15,39,19.20
2012,05,26,15,40,19.10
2012,05,26,15,41,19.00
2012,05,26,15,42,19.00
2012,05,26,15,43,19.10
2012,05,26,15,44,19.00
2012,05,26,15,45,18.90
2012,05,26,15,46,18.90
2012,05,26,15,47,18.90
2012,05,26,15,48,19.00
2012,05,26,15,49,19.00
2012,05,26,15,50,19.10
2012,05,26,15,51,19.10
2012,05,26,15,52,19.20
2012,05,26,15,53,19.20
2012,05,26,15,54,19.30
2012,05,26,15,55,19.40
2012,05,26,15,56,19.50
2012,05,26,15,57,19.60
2012,05,26,15,58,19.70
2012,05,26,15,59,19.80
2012,05,26,16,00,19.90
2012,05,26,16,01,19.90
2012,05,26,16,02,20.00
2012,05,26,16,03,20.10
2012,05,26,16,04,20.10
2012,05,26,16,05,20.00
2012,05,26,16,06,19.90
2012,05,26,16,07,19.90
2012,05,26,16,08,19.80
2012,05,26,16,09,19.70
2012,05,26,16,10,19.70
2012,05,26,16,11,19.60
2012,05,26,16,12,19.60
2012,05,26,16,13,19.60
2012,05,26,16,14,19.60
2012,05,26,16,15,19.60
2012,05,26,16,16,19.60
2012,05,26,16,17,19.60
2012,05,26,16,18,19.50
2012,05,26,16,19,19.50
2012,05,26,16,20,19.50
2012,05,26,16,21,19.50
2012,05,26,16,22,19.60
2012,05,26,16,23,19.60
2012,05,26,16,24,19.70
2012,05,26,16,25,19.70
2012,05,26,16,26,19.80
2012,05,26,16,27,19.80
2012,05,26,16,28,19.90
2012,05,26,16,29,20.10
2012,05,26,16,30,20.20
2012,05,26,16,31,20.30
2012,05,26,16,32,20.30
2012,05,26,16,33,20.30
2012,05,26,16,34,20.30
2012,05,26,16,35,20.30
2012,05,26,16,36,20.30
2012,05,26,16,37,20.30
2012,05,26,16,38,20.30
2012,05,26,16,39,20.40
2012,05,26,16,40,20.60
2012,05,26,16,41,20.70
2012,05,26,16,42,20.90
2012,05,26,16,43,21.00
2012,05,26,16,44,21.00
2012,05,26,16,45,20.90
2012,05,26,16,46,20.90
2012,05,26,16,47,20.80
2012,05,26,16,48,20.80
2012,05,26,16,49,20.80
2012,05,26,16,50,20.90
2012,05,26,16,51,20.90
2012,05,26,16,52,20.90
2012,05,26,16,53,21.00
2012,05,26,16,54,21.00
2012,05,26,16,55,21.10
2012,05,26,16,56,21.10
2012,05,26,16,57,21.20
2012,05,26,16,58,21.20
2012,05,26,16,59,21.30
2012,05,26,17,00,21.40
2012,05,26,17,01,21.50
2012,05,26,17,02,21.60
2012,05,26,17,03,21.60
2012,05,26,17,04,21.70
2012,05,26,17,05,21.80
2012,05,26,17,06,21.80
2012,05,26,17,07,21.70
2012,05,26,17,08,21.70
2012,05,26,17,09,21.70
2012,05,26,17,10,21.70
2012,05,26,17,11,21.80
2012,05,26,17,12,21.80
2012,05,26,17,13,21.90
2012,05,26,17,14,22.00
2012,05,26,17,15,22.10
2012,05,26,17,16,22.10
2012,05,26,17,17,22.20
2012,05,26,17,18,22.20
2012,05,26,17,19,22.30
2012,05,26,17,20,22.30
2012,05,26,17,21,22.40